Regional Weather Roundup
Issued by NWS Newport/Morehead, NC

Home | Current Version | Previous Version | Text Only | Print | Product List | Glossary On
Versions: 1 2 3 4 5 6 7 8 9 10 11 12 13 14 15 16 17 18 19 20 21 22 23 24 25 26 27 28 29 30 31 32 33 34 35 36 37 38 39 40 41 42 43 44 45 46 47 48 49 50
000
ASUS42 KMHX 061124
RWRMHX
WEATHER ROUNDUP FOR EASTERN NORTH CAROLINA
NATIONAL WEATHER SERVICE NEWPORT/MOREHEAD CITY NC
700 AM EDT WED MAY 06 2015

NOTE: "FAIR" INDICATES FEW OR NO CLOUDS BELOW 12,000 FEET
WITH NO SIGNIFICANT WEATHER AND/OR OBSTRUCTIONS TO VISIBILITY

NCZ015>017-031-032-045>047-102-103-061200-
NORTH COAST

CITY           SKY/WX    TMP DP  RH WIND       PRES   REMARKS
EDENTON        PTCLDY    56  54  94 CALM      30.26S
ELIZABETH CITY CLEAR     58  58 100 CALM      30.26S
KITTY HAWK     MOSUNNY   61  60  97 CALM      30.26R
MANTEO         PTCLDY    58  58  99 CALM      30.27R

$$

NCZ045>047-081-094-103-104-061200-
CENTRAL COAST

CITY           SKY/WX    TMP DP  RH WIND       PRES   REMARKS
FRISCO         MOCLDY    55  53  93 E3        30.25S
SWANQUARTER      N/A     57 N/A N/A NE3       30.21S

$$

NCZ095-097-098-100-101-061200-
SOUTHERN COAST

CITY           SKY/WX    TMP DP  RH WIND       PRES   REMARKS
BEAUFORT       MOCLDY    58  56  93 NE5       30.23S
CEDAR ISLAND     N/A     66 N/A N/A CALM      30.27S
JACKSONVILLE   MOCLDY    58  54  86 N6        30.23R
PINEY ISLAND   MOSUNNY  N/A N/A N/A E5        30.24S
WILMINGTON     CLOUDY    57  55  93 NE5       30.22R


$$

NCZ011>013-027>030-043-044-078>080-089-090>093-098-061200-
COASTAL PLAIN

CITY           SKY/WX    TMP DP  RH WIND       PRES   REMARKS
AHOSKIE        PTCLDY    51  50  97 CALM      30.26S
CLINTON        MOCLDY    54  54  99 CALM      30.25S
ELIZABETHTOWN  MOCLDY    55  55 100 CALM      30.23S
GOLDSBORO      PTCLDY    53  51  94 CALM      30.23R
GREENVILLE     PTCLDY    54  54 100 CALM      30.26S
HAVELOCK       MOCLDY    56  53  90 CALM      30.24S
KENANSVILLE    MOCLDY    50  49  97 CALM      30.25S
KINSTON        MOCLDY    54  52  94 CALM      30.26R
NEW BERN       MOCLDY    53  49  86 CALM      30.25S
RICHLANDS      MOCLDY    52  48  87 CALM      30.24S
ROCKY MOUNT    CLEAR     53  51  93 CALM      30.25R
WASHINGTON       N/A     55  53  94 CALM      30.26S
WHITEVILLE     MOCLDY    55  53  95 CALM      30.22S

$$

AMZ130-135-150-152-154-156-158-170-250-252-270-ANZ085-086-088-633-658-670-061200-
MARINE OBSERVATIONS

STATION/POSITION TIME  TEMP    WIND        PRES    WAVE   SWELL
                       AIR SEA DIR/SP/G            HT/PER HT/PER
                 (UTC) (F)     (DEG/KT/KT) (MB)    (FT/S) (FT/S)
CHESAPEAKE LIGHT 1100   63     230/  9/  9 1025.1
64 E VA BEACH    1050   57 56  240/  2/  2 1024.5    2/11   2/11
DUCK             1100   59 51  150/  2/  2 1023.9
2 E DUCK         1011      53                N/A     2/11
OREGON INLET     1100   64 70  120/  2/  2 1024.6
13E OREGON INLT  1100      59                N/A     2/11   2/11
HATTERAS CG      1100   66 67   70/  2/  3 1023.8
DIAMOND BUOY     1050   70 75  110/  6/  8 1024.3    3/ 8   3/ 8
CAPE LOOKOUT     1100   67      40/  7/  7 1023.4
BEAUFORT LAB     1100   63 68   40/  5/  7 1022.8
27 SE WRIGHTSVLE 1100   67 71   90/ 12/ 14   N/A
5 SE WRIGHTSVLE  NOT AVBL
225 S CAPE HAT   1050   68 71   90/ 21/ 27 1021.0    7/ 7
41 SE CHARLESTON 1050   73 73   60/ 16/ 19 1020.2    5/ 8   3/ 8

$$


USA.gov is the U.S. government's official web portal to all federal, state and local government web resources and services.